Wind_Speed
26 27 28 29 31 32 33 34 35 37 38 39 40 41 42 43 44 45 46 47 48 48 49 49 49 50 50 50 50 49 49 49 48 48 47 46 46 45 44 43 42 41 40 40 38 37 35 32 29 26 23 20 17 15 13 11 10 10 10 10 11 12 13 14 14 15 16 17 17 18 19 20 20 21 22 22 23 24 25 26 26 28 29 29 30 30
27 27 29 30 31 33 34 35 36 37 38 39 40 41 42 43 44 45 46 47 47 48 48 49 49 49 49 49 49 49 48 48 47 47 46 45 45 44 43 42 42 41 40 39 37 35 33 30 27 24 21 18 16 13 12 10 10 10 10 11 12 13 14 15 15 16 17 18 18 19 20 21 22 22 23 24 25 25 26 27 28 29 30 31 31 32
28 28 30 31 32 34 35 36 36 37 38 40 41 41 42 43 44 45 46 47 48 48 48 49 49 49 49 49 48 48 48 47 47 46 45 44 43 43 42 42 41 40 39 38 36 34 31 28 25 22 19 16 14 12 11 10 10 11 11 12 13 14 15 16 16 17 18 19 20 21 21 22 23 24 24 25 26 27 27 28 29 30 31 32 33 33
28 29 30 32 33 34 35 36 37 38 39 40 41 42 43 44 45 45 46 47 47 48 48 49 49 49 49 48 48 47 47 46 46 45 44 43 43 42 42 41 41 40 39 37 35 32 29 26 23 20 18 15 13 12 11 11 11 12 13 13 14 15 16 17 17 18 19 20 21 22 23 23 24 25 26 27 27 28 29 30 31 31 32 33 34 35
28 30 31 32 34 35 36 36 37 38 39 40 41 42 43 44 45 46 46 47 47 48 48 48 48 48 48 48 47 47 46 45 44 44 43 42 42 41 41 41 40 40 38 36 33 31 27 24 22 19 16 14 13 12 11 11 12 13 14 15 16 16 17 18 19 20 20 21 22 23 24 25 25 26 27 28 29 30 31 31 32 33 34 35 36 36
29 30 31 33 34 35 36 37 38 39 40 41 41 42 43 44 45 46 47 47 47 48 48 48 47 47 47 47 47 46 45 44 43 42 42 41 41 41 41 40 40 39 37 35 32 29 26 23 20 18 16 14 13 12 12 12 13 14 15 16 17 18 18 19 20 21 22 23 23 24 25 26 27 28 28 29 30 31 32 33 34 35 36 37 37 38
29 30 32 33 34 35 36 37 38 39 40 41 42 42 43 44 45 46 46 47 47 48 48 47 47 46 46 46 46 45 44 43 42 41 40 40 40 40 39 39 39 38 36 34 31 28 25 21 19 17 15 14 13 13 13 14 14 15 16 17 18 19 20 20 21 22 23 24 25 26 26 27 28 29 30 30 31 32 33 34 35 36 37 38 39 39
30 31 32 33 35 36 37 38 38 39 40 41 42 43 43 44 45 45 46 47 47 47 47 47 47 46 45 44 44 44 43 42 41 41 40 39 39 38 38 38 37 36 35 32 29 26 23 20 18 16 15 14 14 14 14 15 16 17 18 19 19 20 21 22 23 23 24 25 26 27 28 29 30 30 31 32 33 33 34 35 36 37 38 39 40 40
30 32 33 33 34 36 37 38 39 39 40 41 42 43 44 44 45 45 46 46 46 46 46 46 46 45 45 43 42 42 42 41 40 40 39 39 38 38 37 36 36 35 33 31 28 25 22 20 18 16 15 15 15 15 16 16 17 18 19 20 21 21 22 23 24 25 26 27 28 29 30 31 32 32 33 34 34 35 36 36 37 38 39 40 40 41
30 32 33 34 35 36 37 38 39 40 41 42 42 43 44 44 45 46 46 45 45 45 45 45 45 45 44 43 41 40 40 40 39 39 38 38 37 37 36 35 34 33 32 30 27 25 22 20 18 17 16 16 16 16 17 18 19 20 21 21 22 23 24 24 25 26 27 28 29 30 31 32 33 34 35 36 36 37 37 38 38 39 39 40 40 41
31 32 33 34 35 36 37 38 39 40 41 42 43 44 44 44 45 45 45 45 45 44 44 44 44 43 43 43 42 40 38 38 38 38 38 37 36 35 34 32 31 31 30 28 26 24 22 20 19 18 17 17 17 18 18 19 20 21 22 23 24 24 25 26 27 28 29 30 31 32 33 34 35 36 36 37 38 38 39 39 39 39 40 40 40 40
31 32 33 34 35 36 37 38 39 40 41 42 43 44 44 45 45 45 45 45 44 44 44 44 44 43 42 42 41 40 38 37 36 36 37 36 35 34 32 30 29 28 27 26 25 23 22 20 19 19 18 19 19 19 20 21 22 23 23 24 25 26 27 28 29 30 30 31 32 33 34 35 36 37 38 38 39 39 39 40 40 40 40 40 40 40
31 33 34 35 36 37 38 39 40 40 41 42 42 43 44 45 45 45 45 45 44 44 43 43 43 43 43 42 41 40 38 37 36 35 35 35 34 33 31 29 27 26 25 25 24 22 21 21 20 20 20 20 21 21 22 22 23 24 25 26 27 28 28 29 30 31 32 33 34 34 35 36 37 37 38 39 39 40 40 40 40 40 40 40 40 40
32 33 34 35 36 37 38 39 40 41 41 42 43 43 44 45 45 45 46 45 45 44 43 42 41 41 42 41 41 40 39 37 36 35 35 34 33 31 30 28 26 24 24 23 23 22 21 21 21 22 22 22 22 23 23 24 25 26 27 28 28 29 30 31 32 32 33 34 34 35 36 36 37 38 38 39 39 39 39 40 40 40 40 40 40 41
32 33 35 35 36 37 38 39 40 41 42 42 43 44 45 45 45 45 45 45 44 44 43 42 41 41 40 39 39 39 38 37 35 34 34 33 32 30 28 27 25 24 23 22 22 21 21 21 21 22 23 23 24 24 25 26 26 27 28 29 30 30 31 32 33 33 34 34 35 36 36 37 37 38 38 38 39 39 39 39 40 40 40 41 41 41
32 34 35 36 37 37 38 39 40 41 42 43 43 44 45 45 45 45 45 45 44 44 43 42 41 41 40 39 38 37 36 36 35 33 33 32 31 29 27 26 25 24 23 22 22 22 21 21 21 22 22 23 24 25 26 27 27 28 29 30 30 31 32 32 33 33 34 35 35 36 36 37 37 37 38 38 38 39 39 40 40 41 41 42 42 42
33 34 35 36 37 38 38 39 40 41 42 43 44 44 44 45 45 45 45 45 45 45 44 43 42 41 40 40 39 37 36 35 34 33 32 31 30 29 27 25 24 23 23 23 23 23 22 22 22 22 22 23 24 24 26 26 27 28 29 30 30 31 32 32 33 34 34 35 35 36 36 37 37 37 38 38 39 40 40 41 42 42 43 43 42 42
33 34 35 36 37 38 39 39 40 41 42 43 43 44 45 45 45 45 45 45 44 44 44 44 43 41 40 39 39 38 36 35 34 33 32 31 30 29 27 25 24 23 23 23 23 24 24 24 24 24 24 24 25 25 26 27 27 28 29 30 31 31 32 33 33 34 34 35 35 36 36 37 38 38 39 40 40 41 42 43 43 44 44 43 43 42
33 34 35 36 37 38 39 39 40 41 42 43 43 44 44 45 45 45 45 44 44 43 43 42 42 42 41 39 39 37 36 35 34 33 31 30 30 29 28 27 25 24 23 23 24 24 25 25 26 26 26 26 27 27 28 28 29 29 30 31 32 33 33 34 34 35 35 36 36 37 37 38 39 40 40 41 42 43 44 44 44 45 44 44 43 42
34 34 35 36 38 39 39 40 41 41 42 43 44 44 44 44 44 44 43 43 43 42 42 41 41 41 40 39 38 37 36 35 34 33 32 30 29 29 29 28 26 24 23 23 24 24 25 26 27 27 27 28 28 29 29 30 30 31 32 33 33 34 34 35 35 36 36 37 37 38 39 39 40 41 42 42 43 44 44 45 45 45 44 44 43 41
34 35 36 37 38 39 40 40 41 42 43 43 44 44 44 44 44 43 43 42 41 41 40 40 39 39 39 39 38 37 36 36 35 34 33 31 30 30 30 29 27 25 24 24 24 24 25 26 27 28 28 29 29 30 30 31 31 32 33 33 34 34 35 35 36 36 37 37 38 39 39 40 41 42 42 43 44 44 44 45 45 45 44 43 42 40
34 35 36 37 38 39 40 41 42 42 43 43 44 44 44 44 43 43 43 42 41 40 39 38 38 38 38 38 38 38 37 36 35 35 34 33 31 31 31 30 28 26 24 24 24 25 25 26 27 28 28 29 29 30 30 31 31 32 32 33 33 34 35 35 36 36 37 38 38 39 40 40 41 42 42 43 44 44 44 45 45 45 44 43 41 39
34 35 36 37 38 39 40 41 42 43 43 43 44 44 44 43 43 43 42 42 40 39 39 38 38 38 37 37 37 37 37 36 35 35 34 33 32 32 32 32 29 27 25 24 24 25 25 26 26 27 28 28 29 29 30 30 31 31 32 32 33 34 34 35 35 36 37 38 38 39 40 40 41 42 42 43 44 44 45 45 45 44 44 42 41 38
34 35 36 37 38 39 40 41 42 43 43 44 44 44 44 44 43 42 42 41 41 40 39 38 38 37 36 36 36 36 36 35 34 34 33 33 32 32 32 32 31 28 26 25 24 24 25 25 26 26 27 28 28 29 29 30 30 31 31 32 33 33 34 35 36 37 37 38 39 39 40 40 41 42 42 43 44 44 44 44 44 43 43 41 40 37
35 36 36 37 38 39 40 41 42 43 43 43 44 44 44 43 43 42 42 41 40 40 39 38 36 35 34 34 35 35 35 34 33 32 32 33 33 32 32 32 31 29 27 25 25 24 24 25 25 25 26 27 27 28 29 30 30 31 32 32 33 34 35 36 36 37 38 38 39 39 40 40 41 42 42 43 43 43 43 43 43 42 42 40 39 36
35 36 37 38 39 40 41 41 42 43 43 43 43 43 43 43 42 42 41 40 39 39 38 37 35 34 33 32 32 33 34 34 32 31 31 32 33 33 33 32 32 30 28 26 25 24 25 25 24 25 25 26 27 28 29 30 31 32 32 33 34 35 36 37 37 38 38 39 39 39 40 40 40 41 41 42 42 42 42 41 41 41 40 39 38 36
35 36 37 38 39 40 41 42 42 43 43 43 43 43 42 42 42 41 39 39 38 37 36 36 35 34 33 32 32 32 33 33 32 32 31 32 32 32 33 33 32 31 29 27 25 25 25 25 25 25 25 26 28 29 30 31 32 33 34 34 35 36 37 37 37 38 38 38 38 39 39 39 39 40 40 40 40 40 40 40 40 40 39 39 37 35
36 37 38 39 40 41 41 42 43 43 43 43 43 43 42 42 41 40 39 38 37 36 36 35 35 34 34 32 32 31 32 32 32 32 32 32 32 32 32 32 32 32 31 29 26 25 24 25 26 26 27 27 28 30 31 32 33 34 34 35 36 36 37 37 37 37 37 37 38 38 38 38 38 38 38 38 38 38 38 38 39 39 39 38 36 34
36 37 38 39 40 41 42 42 43 43 43 43 43 43 42 41 40 39 39 38 37 36 36 35 35 34 34 33 32 31 31 31 31 32 32 32 32 32 32 32 32 32 32 31 28 25 23 24 25 27 28 28 29 31 32 33 33 34 34 35 35 35 36 36 36 36 36 37 37 37 37 36 36 36 36 36 36 36 37 37 38 38 38 36 35 33
36 37 38 39 40 41 42 42 43 43 43 43 43 42 42 41 40 39 39 38 37 36 36 35 35 35 34 34 33 32 32 31 31 31 32 32 32 32 32 32 32 32 33 33 32 29 25 23 24 26 27 28 30 31 32 33 33 34 34 34 34 35 35 35 36 36 36 36 36 36 35 35 35 34 34 34 34 35 36 37 37 37 36 35 33 31
36 37 38 39 40 41 42 42 42 43 43 43 42 42 41 41 40 39 38 38 37 36 36 36 35 35 34 34 34 34 33 33 33 32 32 32 33 33 33 33 33 33 33 34 35 34 31 27 25 25 26 28 29 30 32 33 33 34 34 34 34 35 35 36 36 36 36 35 35 34 34 33 33 32 32 32 33 34 35 36 36 36 35 33 31 29
36 37 38 39 40 41 41 42 42 42 42 42 42 41 41 40 39 39 38 37 37 37 36 36 36 35 34 34 33 33 33 34 34 34 33 33 33 33 33 34 34 34 34 34 35 36 36 33 30 28 27 28 29 30 32 33 33 34 34 35 35 35 36 36 36 36 36 35 34 33 32 31 31 30 30 31 31 32 34 35 35 35 34 32 30 28
36 37 38 39 40 41 41 42 42 42 42 42 41 41 40 40 39 38 38 37 37 37 37 37 36 36 35 34 33 33 33 33 33 34 34 34 34 34 34 34 35 35 34 34 34 35 36 36 34 32 31 30 30 31 32 33 34 35 35 36 36 37 37 37 37 36 35 34 33 32 30 30 29 29 29 29 30 31 33 34 34 33 32 31 29 28
37 38 39 39 40 41 41 42 42 42 41 41 41 40 40 39 39 38 38 37 37 37 37 36 36 36 36 35 34 33 33 33 33 33 34 35 35 35 35 35 36 36 36 35 35 35 35 36 36 35 34 32 32 32 33 34 35 36 36 37 37 38 38 37 37 36 34 33 31 30 29 28 28 27 28 28 29 31 32 33 33 32 31 30 29 27
37 38 39 40 40 41 41 41 41 41 41 41 40 40 39 39 38 38 37 37 37 37 37 36 36 36 35 35 34 34 34 34 33 34 34 35 35 36 36 36 36 37 37 37 37 37 37 37 37 37 36 35 34 33 34 35 36 37 37 38 38 38 38 37 36 35 33 32 30 29 28 27 27 27 27 28 29 30 31 32 32 31 30 29 27 26
37 38 39 40 40 41 41 41 41 41 41 40 40 39 39 38 38 37 37 36 36 36 36 36 36 36 35 34 34 33 33 33 33 34 34 35 35 36 36 36 36 37 38 38 38 39 39 39 38 38 38 38 37 36 36 37 37 38 38 38 38 37 37 36 35 34 32 30 28 27 26 26 26 26 27 28 29 30 31 31 31 30 29 27 26 25
37 38 39 40 40 40 41 41 41 40 40 40 39 39 38 37 37 36 36 36 36 36 36 36 36 35 35 34 33 32 32 32 33 33 34 34 35 35 36 36 36 37 38 38 39 40 40 41 41 40 40 40 40 40 40 40 39 39 39 39 38 37 36 35 34 32 31 29 27 26 25 25 25 26 27 29 30 30 30 30 29 28 27 25 24 23
37 38 39 40 40 40 40 40 40 40 39 39 38 38 37 37 36 36 36 36 35 35 35 35 35 35 35 34 33 32 32 32 32 33 33 34 34 35 35 36 36 36 37 38 39 40 41 42 42 43 42 42 41 41 42 42 42 42 41 39 38 37 36 35 33 32 30 28 26 25 24 24 25 26 28 29 30 31 30 29 28 27 25 23 22 21
37 38 39 40 40 40 40 40 40 40 39 39 38 37 37 36 36 36 35 35 35 35 35 35 34 34 34 33 33 32 32 31 31 32 33 33 34 34 35 35 36 36 37 37 39 40 41 42 43 43 44 44 43 43 43 43 43 43 42 40 38 37 35 34 33 31 29 27 26 25 24 24 25 26 28 30 31 31 30 29 27 25 23 21 20 19
38 39 39 40 40 40 40 40 40 40 39 39 38 37 37 36 36 35 35 35 35 34 34 34 34 33 32 31 31 31 31 31 31 31 32 32 33 34 34 35 35 36 36 37 37 38 40 41 42 43 44 44 44 44 43 43 43 43 43 41 39 37 35 33 32 30 29 27 26 25 24 25 25 26 28 30 31 31 30 29 26 24 21 19 18 17
38 39 40 40 41 41 41 41 40 40 40 39 38 38 37 36 36 35 35 35 34 34 34 33 33 32 31 30 29 29 29 30 30 31 31 32 32 33 34 34 35 35 35 36 36 37 38 39 40 41 42 43 44 44 43 43 43 42 42 41 39 37 35 33 31 30 28 27 26 25 25 25 26 27 28 29 30 31 30 28 26 23 20 18 17 16
38 39 40 40 41 41 41 41 41 40 40 39 38 38 37 36 36 35 35 34 34 34 33 32 32 31 30 29 29 28 28 29 29 30 31 31 32 32 33 33 34 34 35 35 35 36 36 38 39 40 41 42 43 43 43 42 41 41 40 40 38 36 34 32 30 29 28 27 26 25 25 25 26 27 28 29 30 30 29 27 25 22 20 18 16 15
38 39 40 41 41 41 42 41 41 40 40 39 38 38 37 36 36 35 35 34 34 33 33 32 31 30 29 28 27 27 27 28 28 29 30 31 31 32 32 32 33 33 34 35 35 35 36 37 38 39 40 41 42 42 42 41 40 39 39 38 37 36 34 31 29 28 27 26 26 26 26 26 27 27 28 28 28 28 27 25 23 21 19 17 16 15
39 40 41 41 42 42 42 41 41 40 39 39 38 38 37 37 36 35 35 34 34 33 33 32 31 30 28 27 26 26 26 27 27 28 29 30 30 31 31 32 32 32 33 34 35 35 36 37 37 38 39 40 40 40 40 40 39 38 37 36 36 35 34 32 30 29 27 26 26 26 26 26 27 27 27 27 26 25 24 22 20 19 17 15 14 13
39 40 41 42 42 42 41 40 40 40 39 38 38 37 37 37 36 35 35 35 34 34 33 32 31 30 29 28 26 26 25 26 26 27 28 29 29 30 31 31 31 32 32 33 34 35 36 37 38 38 38 38 38 39 39 39 38 38 36 35 34 33 32 32 31 30 28 27 26 26 26 27 27 26 26 25 24 23 21 20 18 17 15 14 13 12
40 41 41 42 41 41 40 40 40 39 38 38 38 37 37 36 36 35 35 34 34 34 33 32 31 30 29 28 28 27 26 26 26 27 27 28 29 29 30 30 31 31 32 32 33 34 35 36 37 37 38 38 37 37 37 38 38 37 36 35 34 33 32 31 30 30 29 28 27 26 26 26 26 25 24 23 22 21 20 18 17 15 14 13 12 11
40 41 41 41 41 41 40 40 39 38 38 37 37 37 36 36 35 35 35 34 34 33 33 32 31 30 29 28 28 28 28 28 27 28 28 28 28 29 29 30 30 31 32 32 32 33 33 33 34 35 36 36 36 36 36 36 37 37 36 35 34 33 32 31 30 29 28 28 27 26 26 25 24 23 22 21 20 19 18 17 16 15 14 12 11 11
40 40 41 41 41 40 40 39 38 37 37 37 36 36 36 35 35 35 35 35 34 33 33 32 30 29 28 28 28 28 28 29 29 29 29 29 30 30 30 31 31 31 32 32 32 31 30 30 31 32 33 35 35 36 36 36 36 36 35 35 34 32 31 30 30 29 28 27 26 25 25 24 23 22 20 20 19 18 18 17 16 15 13 12 12 11
40 40 41 41 40 40 39 38 38 37 36 36 36 36 35 35 35 34 34 34 34 33 32 31 30 29 28 28 28 28 29 29 29 30 30 31 31 32 32 33 33 33 32 32 31 30 28 27 27 28 30 32 34 35 35 35 35 35 34 34 33 32 31 30 29 28 27 25 24 23 23 23 22 21 20 19 19 18 17 17 16 15 14 13 12 11
40 40 40 40 40 39 39 38 37 36 36 35 35 35 35 35 34 34 34 34 33 32 31 30 29 29 28 28 28 28 29 29 30 31 31 32 33 34 35 35 35 35 34 33 31 30 28 26 25 26 28 30 32 34 35 35 34 34 33 33 32 32 31 31 29 27 25 24 22 22 21 21 21 21 20 19 19 18 17 16 16 15 14 13 13 12
40 40 40 40 40 39 38 37 36 36 35 35 34 34 34 34 34 34 33 33 32 31 30 29 28 28 28 28 28 28 29 30 31 31 32 33 34 35 36 37 37 37 36 35 33 32 30 28 26 26 27 29 31 33 34 35 35 34 33 32 32 32 31 30 28 26 24 22 22 21 21 21 20 20 20 19 19 18 17 17 16 15 15 14 14 13
Wind_Direction
317 318 319 320 321 322 323 324 324 324 323 323 324 324 325 325 326 326 327 327 327 328 328 328 328 329 329 329 330 330 330 331 331 331 331 331 331 332 332 333 333 333 333 332 331 330 329 327 326 325 324 322 321 320 319 318 317 317 317 318 318 319 320 321 322 323 324 325 326 327 328 328 328 328 329 329 329 329 328 329 329 328 328 328 328 329
319 320 321 322 322 323 324 324 324 324 323 324 324 325 326 326 327 327 327 327 328 328 328 328 329 329 330 330 331 331 331 331 331 331 331 331 332 332 332 333 333 333 333 332 331 329 328 326 325 323 321 320 318 316 315 313 312 312 312 313 315 316 318 318 320 321 322 323 323 324 325 325 325 325 326 326 326 326 326 326 326 326 326 326 326 327
321 322 323 323 323 323 324 324 324 324 324 324 325 326 327 327 327 327 328 328 328 328 329 329 329 330 330 331 331 331 332 332 332 332 332 332 332 332 332 332 333 333 332 331 330 329 327 325 323 321 319 317 314 311 310 307 307 308 309 311 312 314 315 316 317 318 319 320 321 322 322 322 323 323 323 323 323 323 323 324 324 324 324 324 324 325
322 323 323 323 323 323 323 324 324 324 325 325 326 327 327 328 328 328 328 328 329 329 329 330 330 331 331 331 332 332 332 332 332 332 332 332 332 332 332 332 332 332 332 331 330 328 326 323 321 318 315 312 309 306 304 304 304 305 307 309 311 312 313 314 315 316 317 318 319 320 320 320 321 321 321 321 321 321 321 322 322 322 322 323 323 323
322 323 323 323 323 323 323 324 324 325 326 326 327 328 328 328 328 328 329 329 329 330 330 331 331 331 332 332 332 332 332 332 332 332 332 332 332 332 332 332 332 331 331 330 329 327 324 321 318 314 311 308 304 302 300 300 302 304 306 308 309 310 311 312 314 315 316 316 317 318 318 319 319 319 319 319 319 320 320 320 320 321 321 321 322 322
322 323 323 323 323 323 324 324 325 326 327 327 328 328 328 328 328 329 329 330 330 331 331 331 332 332 332 332 332 332 332 332 333 333 333 332 332 332 331 331 331 331 330 329 328 325 322 319 315 311 307 303 300 298 298 299 300 303 304 306 308 309 310 311 312 313 314 315 316 316 317 317 317 317 318 318 318 318 318 319 319 320 320 321 321 321
322 323 323 323 323 324 324 325 326 327 327 327 328 328 329 329 329 329 330 331 331 332 332 332 332 332 332 332 332 332 332 333 333 333 333 333 332 332 331 331 330 330 329 328 326 324 320 316 311 307 302 299 297 296 296 298 300 302 304 305 307 308 309 310 311 312 313 314 314 315 315 315 315 316 316 316 316 317 317 318 318 319 319 320 320 320
322 322 323 323 324 324 325 325 326 327 328 328 328 328 329 329 330 330 331 331 332 332 332 332 332 332 333 333 333 332 332 332 332 333 333 333 332 332 331 330 329 329 327 326 324 322 318 313 308 303 299 296 294 294 295 297 299 301 303 304 305 307 308 309 310 311 312 313 313 314 314 314 314 314 314 315 315 315 316 317 317 318 318 319 319 319
322 322 323 324 324 325 325 326 327 328 328 328 328 329 329 330 330 331 332 332 332 332 332 332 332 332 332 333 333 333 333 332 332 332 332 332 332 332 330 330 329 327 326 324 323 320 315 310 305 300 296 294 293 294 296 298 299 301 303 304 305 306 307 308 309 310 311 312 312 312 313 313 313 313 314 314 314 315 315 316 316 317 317 317 318 318
322 323 323 324 325 325 326 326 327 328 328 328 329 329 330 331 331 332 332 332 333 333 332 332 332 333 332 333 333 333 333 333 332 332 332 332 332 331 330 329 328 327 324 322 320 317 313 308 303 298 295 293 293 294 296 298 300 301 303 304 305 306 307 308 309 310 310 311 311 312 312 312 313 313 313 314 314 314 315 316 316 316 317 317 317 317
323 323 324 325 325 326 326 327 327 328 329 329 329 330 330 331 332 332 332 332 333 333 333 332 332 332 333 333 333 333 333 333 333 332 332 333 333 332 330 328 327 325 323 320 318 315 311 307 303 299 296 295 295 296 298 299 301 302 304 305 306 307 308 309 310 310 311 311 311 311 312 312 312 313 313 313 314 315 315 315 316 316 316 316 316 316
324 324 325 325 326 327 327 328 328 329 329 329 330 330 331 331 332 332 332 333 333 333 333 332 332 332 333 333 333 333 333 333 333 332 332 332 332 332 330 327 325 323 321 318 316 313 310 306 303 300 298 297 297 298 300 301 303 304 305 307 307 308 309 310 310 311 311 311 311 312 312 312 312 313 313 313 314 314 315 315 315 315 315 316 316 316
324 325 325 326 327 327 328 328 329 329 329 330 330 331 331 332 332 332 333 333 333 334 334 333 333 332 333 333 333 333 333 332 333 332 332 332 332 332 330 327 324 322 320 316 314 312 310 307 305 303 301 300 300 301 302 303 305 306 307 308 309 310 310 310 311 311 311 312 312 312 312 312 312 313 313 313 314 314 314 315 315 315 315 315 315 316
325 325 326 327 327 328 329 329 329 329 330 330 331 331 332 332 332 333 333 333 334 334 334 334 333 332 332 333 333 333 333 333 333 333 332 332 332 332 331 328 325 322 320 316 313 311 310 308 307 306 305 304 304 304 305 306 307 308 309 310 310 311 311 311 312 312 312 312 312 312 312 312 313 313 313 313 314 314 314 314 314 315 315 315 316 316
326 326 327 327 328 329 329 330 330 330 331 331 331 332 332 332 333 333 333 333 333 333 333 334 333 333 332 332 332 333 332 332 333 333 332 331 331 332 332 329 327 324 321 317 314 311 309 308 308 308 308 308 308 308 308 309 310 310 310 311 311 311 312 312 312 312 312 313 313 313 313 313 313 313 313 313 313 314 314 314 315 315 315 316 316 317
327 327 328 328 329 329 330 330 331 331 331 332 332 332 333 333 333 333 334 334 333 333 333 333 333 333 332 331 332 333 333 332 332 333 333 331 331 332 333 331 329 326 324 320 316 313 311 309 308 307 308 309 309 310 310 310 310 311 311 311 311 312 312 312 312 313 313 313 313 313 313 313 313 313 314 314 314 315 315 315 315 315 316 316 317 317
327 328 328 329 329 330 331 331 331 332 332 332 332 333 333 333 334 334 334 334 333 333 332 332 332 332 332 331 331 332 333 333 333 333 333 332 331 332 334 333 331 329 326 323 320 318 315 312 310 308 308 308 308 309 309 309 310 310 311 311 311 312 312 313 313 313 314 314 314 314 314 314 314 315 315 316 316 316 316 316 316 316 316 316 317 318
328 329 329 329 330 331 331 332 332 332 332 333 333 333 334 334 334 334 334 334 333 333 332 332 332 332 332 332 331 332 333 333 333 333 333 332 332 333 334 335 334 333 330 327 324 322 320 317 315 312 311 310 309 309 309 310 310 311 312 312 313 314 314 314 315 315 315 315 315 316 316 316 317 317 318 318 318 318 317 317 316 316 316 317 318 318
330 330 330 330 331 331 332 332 333 333 333 333 334 334 335 335 334 334 334 334 333 333 332 332 332 332 332 332 331 332 333 333 333 333 334 333 332 333 335 336 336 336 333 330 328 326 324 322 320 318 316 314 314 313 313 313 314 314 315 316 316 316 317 317 317 317 317 317 318 318 318 319 319 319 319 319 318 318 317 317 316 316 316 317 318 319
330 331 331 331 331 332 332 333 333 333 334 334 335 335 335 335 335 334 334 333 333 332 332 332 332 331 331 331 331 332 333 333 333 334 334 334 333 333 334 336 337 337 335 333 330 329 327 326 324 323 321 320 319 318 318 318 318 318 318 319 319 319 319 319 319 319 319 320 320 320 320 320 320 320 319 319 318 317 317 316 316 316 317 318 319 320
331 331 332 332 332 333 333 333 334 334 335 335 335 336 335 335 335 334 333 333 332 332 332 332 331 331 331 331 331 331 333 334 334 334 335 335 334 333 333 334 335 336 335 333 332 331 329 328 326 325 324 323 323 322 321 321 321 321 321 320 320 320 320 320 320 321 321 321 321 321 321 320 320 319 318 318 317 316 316 316 316 316 317 318 320 321
332 332 332 333 333 333 334 334 335 335 335 336 336 336 335 335 334 334 333 333 332 332 332 332 332 331 331 331 331 332 333 334 334 334 334 335 334 333 332 332 333 334 335 334 332 331 331 329 328 327 326 325 324 323 323 322 322 321 321 321 320 320 321 321 321 321 321 321 321 320 320 319 319 318 317 317 316 316 316 316 316 317 318 319 321 322
332 332 333 333 334 334 335 335 335 336 336 336 336 336 335 335 334 334 333 333 332 332 332 333 333 333 333 332 331 332 333 334 334 334 334 334 333 332 331 331 331 332 334 334 333 332 331 330 329 327 326 325 324 323 322 322 321 321 321 321 321 321 321 321 321 321 320 320 320 319 319 318 318 318 317 317 317 316 316 316 317 317 318 319 321 323
332 333 333 334 334 335 335 336 336 336 336 336 336 336 335 335 334 334 333 333 333 333 333 334 334 334 333 332 331 330 331 332 333 333 333 333 332 331 330 329 329 330 332 333 333 332 332 331 329 328 327 325 324 323 322 321 321 321 321 321 321 321 321 321 320 320 320 319 319 319 319 318 318 318 318 317 317 317 317 317 317 317 318 320 321 323
333 334 334 335 335 336 336 336 337 337 337 336 336 336 335 335 334 334 334 334 334 334 334 334 334 333 332 331 329 329 329 331 332 332 333 332 331 330 329 328 328 328 330 332 332 332 331 330 329 328 326 325 324 323 322 322 322 322 322 322 321 321 321 321 320 320 320 320 319 319 320 320 319 319 318 318 317 317 316 316 317 317 318 319 321 322
334 334 335 336 336 336 337 337 337 337 336 336 336 336 335 335 334 334 334 334 334 333 333 333 333 332 331 330 329 328 328 330 331 332 332 332 331 330 329 328 327 327 328 330 331 330 329 328 328 327 326 325 324 323 322 322 322 322 322 322 321 321 321 320 320 320 320 320 321 321 321 320 320 319 318 317 317 316 316 316 316 317 318 319 321 322
335 335 336 336 337 337 337 337 337 337 336 336 336 336 335 335 335 334 334 334 333 332 332 332 332 332 331 331 329 328 328 330 331 332 332 332 331 330 330 328 328 327 327 328 329 329 328 327 326 325 325 324 323 322 322 322 322 321 321 321 321 321 321 321 321 321 321 322 322 322 321 321 320 318 317 317 316 316 316 316 316 317 318 320 321 322
336 336 337 337 337 337 337 337 337 337 336 336 336 336 336 335 335 334 334 333 333 332 332 332 332 332 332 331 330 329 329 330 331 332 332 332 332 331 330 329 328 327 326 327 328 328 328 326 324 324 324 323 323 322 321 321 320 320 321 321 321 321 321 321 322 322 323 323 323 322 322 320 319 318 317 316 316 316 316 316 317 318 319 320 322 323
337 337 337 338 338 338 337 337 337 337 336 336 336 336 336 336 335 335 334 333 333 333 332 332 332 332 332 331 331 329 329 330 331 332 332 333 333 333 332 330 329 329 328 327 328 328 329 327 325 324 323 323 323 322 321 320 320 320 320 321 321 321 322 322 323 324 324 324 324 323 322 320 319 318 317 316 316 316 316 316 317 319 320 322 324 326
337 337 338 338 338 338 337 337 337 337 337 336 336 336 336 336 335 335 334 334 333 333 333 332 332 332 332 332 331 331 330 330 331 333 333 334 334 334 334 333 332 332 331 330 330 331 331 331 329 327 326 325 324 323 322 321 321 321 322 323 323 324 324 325 325 326 326 325 325 323 322 320 319 318 317 316 316 316 316 317 318 320 322 325 327 329
338 338 338 338 338 338 337 337 337 337 337 337 337 336 336 336 335 335 334 334 333 333 333 333 333 333 333 332 332 331 331 331 332 333 334 335 335 336 336 335 335 334 334 333 332 332 334 335 335 333 331 329 328 326 325 324 324 324 325 326 326 326 327 327 327 328 327 327 326 324 322 321 319 318 317 316 316 316 317 318 320 323 326 328 331 333
338 338 338 338 338 338 337 337 337 337 337 337 337 337 336 336 336 335 334 334 334 334 334 334 334 334 333 333 333 332 331 331 332 334 335 335 336 337 337 337 337 336 336 335 334 333 334 335 337 337 336 334 332 330 328 327 327 327 328 328 329 329 329 329 329 329 329 328 326 324 322 320 319 318 317 316 316 317 318 319 322 326 329 331 334 336
338 338 338 338 338 338 338 338 337 337 337 337 337 337 337 336 336 335 335 334 334 334 334 334 334 334 334 333 333 332 332 332 333 334 335 336 337 338 338 338 338 337 337 336 335 334 334 334 335 337 337 337 336 334 332 330 330 330 330 331 331 331 331 331 331 330 329 328 326 324 322 320 318 317 317 317 317 317 319 322 325 329 332 334 336 337
338 338 338 338 338 338 338 338 338 338 338 338 338 338 337 337 336 336 335 335 335 334 334 334 334 334 334 334 333 333 332 332 333 334 335 336 337 338 338 339 338 337 336 336 335 335 334 334 335 336 336 337 337 336 334 332 331 332 332 332 333 332 332 332 331 330 329 328 326 324 321 319 318 318 317 317 318 319 321 325 328 332 336 337 337 338
338 338 338 338 338 338 338 338 338 338 339 339 339 338 338 338 337 336 336 335 335 335 334 334 334 334 334 334 333 333 333 333 333 334 335 336 337 338 338 338 338 337 336 336 335 335 335 335 335 335 336 337 337 337 335 334 333 333 333 333 333 333 333 332 331 330 329 328 326 323 321 320 319 319 319 319 320 321 324 327 331 335 338 339 339 339
338 338 338 338 338 338 338 339 339 339 339 339 339 339 339 338 337 337 336 336 335 335 335 334 334 334 334 334 333 333 333 333 333 334 335 336 337 337 338 338 338 337 336 336 336 335 335 335 335 335 336 336 337 337 336 335 334 334 334 334 334 333 333 332 331 330 329 327 326 324 323 322 321 321 321 321 322 324 327 330 333 337 339 341 340 339
338 338 338 338 338 339 339 339 340 340 340 340 340 340 339 338 338 337 337 336 336 335 335 334 334 334 334 334 333 333 333 333 333 334 335 336 336 337 337 337 337 337 337 336 336 335 335 335 335 335 336 336 337 337 336 335 335 334 334 334 334 334 333 332 331 330 329 328 327 326 325 324 324 323 322 323 324 326 329 332 336 339 341 342 341 339
338 338 338 338 339 339 339 340 340 341 341 341 340 340 339 339 338 338 337 337 336 336 335 335 335 334 334 334 333 333 333 333 334 334 335 335 336 336 337 337 338 338 337 337 336 336 335 335 335 335 335 336 336 336 336 335 334 334 334 335 334 334 333 332 331 330 329 329 329 329 328 327 326 325 324 324 326 328 332 335 339 342 344 344 342 339
338 338 338 339 339 340 340 341 341 341 341 341 341 341 340 340 339 339 338 338 337 337 336 335 335 335 334 334 334 333 333 333 334 334 335 335 336 336 337 337 338 338 338 338 337 336 336 335 335 334 334 335 335 335 335 334 334 334 334 334 334 334 333 332 331 331 331 332 332 331 331 330 328 327 326 326 328 330 334 338 342 345 347 346 343 340
338 338 339 339 340 341 341 341 342 342 342 342 341 341 341 341 340 340 339 339 338 338 337 336 336 335 334 334 334 333 333 333 334 334 335 335 336 337 337 338 338 338 338 338 337 336 336 335 334 334 333 333 333 334 334 334 333 333 333 333 334 334 334 333 333 333 334 335 335 335 334 332 331 329 328 328 329 331 335 339 343 347 349 348 346 342
338 339 340 340 341 341 342 342 342 342 342 342 342 342 342 341 341 340 339 339 339 338 338 337 337 336 335 335 334 334 334 334 334 334 335 336 337 337 338 338 338 338 338 338 337 337 336 334 333 332 332 332 332 332 333 333 333 333 333 333 333 334 334 335 336 337 338 339 339 338 336 334 332 331 330 329 330 332 335 339 343 346 349 349 346 343
339 340 340 341 342 342 342 343 343 343 343 342 342 342 342 341 341 340 340 339 339 339 338 338 338 337 336 335 335 334 334 334 335 335 336 337 338 338 338 338 338 338 338 337 337 336 335 334 333 332 331 331 331 331 332 332 333 333 333 333 333 334 335 337 339 341 342 343 342 340 338 335 334 333 332 331 331 332 335 338 342 346 348 348 346 343
340 341 341 342 342 343 343 343 343 343 343 342 342 342 342 341 341 341 340 340 340 339 339 339 339 338 338 337 336 335 335 335 336 336 337 338 338 338 338 338 338 338 337 337 337 336 335 334 332 331 330 330 330 331 331 332 333 333 334 335 335 336 338 341 343 345 346 346 344 342 339 336 335 334 333 332 332 332 335 339 343 347 349 350 348 344
341 342 342 343 343 343 344 344 343 343 343 343 342 342 342 342 341 341 341 340 340 340 340 340 340 340 339 339 338 338 337 337 337 338 338 338 339 339 339 339 338 338 338 337 337 336 335 334 332 331 331 330 330 331 331 332 333 335 336 338 339 341 343 346 347 348 348 347 345 343 340 337 336 335 334 333 333 334 337 342 346 350 353 353 351 348
342 342 343 343 344 344 344 344 343 343 343 343 343 342 342 342 342 341 341 341 341 341 341 341 341 341 340 340 340 340 340 340 340 339 340 339 339 339 339 339 339 338 338 338 337 336 336 335 333 332 331 331 331 331 332 333 335 337 340 342 344 346 348 349 350 350 349 348 346 343 340 338 337 336 335 334 335 337 342 347 353 357 358 358 357 355
342 343 343 344 344 344 344 344 344 343 343 343 343 343 342 342 342 342 342 342 342 342 342 342 342 342 342 342 342 342 342 342 342 341 341 341 340 340 339 339 339 339 339 338 338 338 337 337 335 333 332 332 332 333 334 336 338 341 343 346 348 349 351 351 351 351 350 348 346 343 340 338 337 337 337 338 340 344 349 355 360 3 5 6 5 4
343 343 344 344 344 344 344 344 344 344 344 343 343 343 342 342 342 342 342 343 343 343 343 344 344 344 343 343 343 343 343 343 343 343 342 341 341 340 340 340 339 339 339 340 340 340 340 340 338 336 334 333 333 335 336 339 342 344 347 348 350 351 352 353 353 352 350 349 346 343 340 339 339 340 343 346 348 352 356 1 5 8 10 12 13 14
343 343 344 344 344 344 344 344 344 344 344 344 343 343 343 343 343 343 343 343 344 344 345 345 345 345 345 345 344 344 343 343 343 343 342 342 341 341 340 340 340 341 341 341 342 343 344 344 342 340 337 335 336 337 340 343 346 348 349 350 351 351 353 354 354 353 352 349 346 343 342 341 343 347 351 354 357 360 3 7 10 12 14 16 18 20
343 344 344 344 345 345 345 345 345 345 345 344 344 344 344 344 344 344 344 344 345 345 346 346 346 346 346 346 346 345 344 344 343 343 342 342 342 341 341 341 341 342 342 344 345 347 348 350 349 346 341 339 339 340 343 347 349 351 351 351 352 353 354 355 355 355 353 351 348 346 345 346 349 353 358 1 3 5 7 11 14 15 16 17 19 20
344 344 344 345 345 345 345 345 345 345 345 345 345 345 345 345 345 345 345 345 346 346 347 347 347 347 347 347 346 345 345 344 344 343 343 343 343 342 342 342 342 343 344 345 347 349 352 355 357 354 349 345 343 344 346 349 351 353 354 354 354 355 355 356 357 357 355 353 351 350 351 353 355 358 2 4 6 7 9 12 15 17 16 16 17 17
344 344 345 345 345 346 346 346 346 346 346 346 346 346 346 346 346 346 346 346 347 347 348 349 349 349 348 348 347 346 345 345 344 344 344 344 344 344 343 344 344 345 346 347 349 351 353 357 360 1 358 352 348 347 348 350 352 355 356 357 357 357 357 358 359 359 358 357 356 356 358 359 0 2 4 5 7 9 11 13 15 16 16 15 15 15
Height
3066 3065 3063 3061 3060 3058 3056 3055 3053 3051 3049 3047 3045 3043 3040 3038 3035 3033 3030 3027 3025 3022 3019 3016 3013 3010 3008 3005 3002 2999 2996 2993 2991 2988 2985 2983 2980 2978 2976 2974 2972 2970 2968 2965 2963 2961 2959 2957 2955 2954 2953 2951 2950 2949 2948 2947 2946 2945 2945 2944 2943 2942 2941 2940 2939 2938 2937 2935 2934 2933 2932 2931 2930 2928 2927 2926 2925 2923 2922 2920 2919 2917 2916 2914 2913 2912
3064 3063 3061 3060 3058 3056 3054 3053 3051 3050 3047 3045 3043 3040 3038 3036 3033 3030 3028 3025 3022 3020 3017 3014 3011 3008 3005 3002 2999 2996 2994 2991 2989 2986 2984 2981 2979 2976 2974 2972 2970 2968 2966 2964 2961 2960 2957 2956 2954 2953 2951 2950 2949 2948 2947 2946 2945 2945 2944 2943 2942 2941 2940 2939 2938 2937 2935 2934 2933 2932 2931 2930 2928 2927 2926 2925 2923 2922 2920 2919 2917 2916 2914 2913 2911 2910
3062 3060 3059 3058 3056 3054 3052 3051 3049 3047 3045 3043 3040 3038 3036 3034 3031 3028 3026 3023 3020 3017 3014 3011 3009 3005 3002 3000 2997 2994 2992 2989 2986 2984 2981 2979 2977 2974 2972 2970 2968 2966 2964 2962 2960 2958 2956 2955 2953 2951 2950 2949 2948 2947 2946 2945 2945 2944 2943 2942 2941 2940 2939 2938 2936 2935 2934 2933 2932 2931 2930 2928 2927 2926 2924 2923 2921 2920 2919 2917 2916 2914 2913 2911 2910 2908
3060 3059 3057 3056 3054 3052 3051 3049 3047 3045 3043 3041 3038 3036 3034 3031 3029 3026 3024 3021 3018 3015 3011 3009 3006 3003 3000 2997 2995 2992 2990 2987 2985 2982 2980 2977 2975 2972 2970 2968 2966 2964 2962 2960 2958 2956 2955 2953 2952 2950 2949 2948 2947 2946 2945 2945 2944 2943 2942 2941 2940 2939 2937 2936 2935 2934 2933 2932 2930 2929 2928 2927 2925 2924 2923 2921 2920 2918 2917 2915 2914 2912 2911 2910 2908 2906
3059 3057 3055 3054 3052 3051 3049 3047 3045 3043 3041 3039 3036 3034 3031 3029 3026 3024 3021 3018 3016 3013 3010 3006 3003 3000 2998 2995 2993 2990 2988 2985 2983 2980 2978 2975 2973 2971 2968 2966 2964 2962 2960 2959 2957 2955 2954 2952 2950 2950 2948 2947 2946 2945 2945 2944 2943 2942 2940 2940 2939 2937 2936 2935 2934 2933 2931 2930 2929 2928 2927 2925 2924 2923 2921 2920 2918 2917 2915 2914 2912 2910 2909 2908 2906 2905
3057 3056 3054 3053 3051 3049 3047 3045 3043 3041 3039 3037 3035 3032 3030 3027 3024 3021 3018 3016 3013 3010 3007 3004 3002 2999 2996 2993 2990 2988 2986 2984 2981 2979 2976 2974 2971 2969 2967 2965 2963 2961 2959 2957 2955 2954 2952 2951 2950 2948 2947 2946 2945 2944 2944 2942 2941 2940 2940 2938 2937 2936 2935 2934 2932 2931 2930 2929 2927 2926 2925 2924 2922 2921 2920 2918 2916 2915 2913 2912 2910 2909 2907 2905 2904 2902
3056 3055 3053 3051 3049 3047 3045 3044 3041 3039 3037 3035 3032 3030 3028 3025 3022 3019 3016 3014 3010 3008 3005 3002 3000 2997 2995 2992 2989 2986 2984 2981 2979 2977 2975 2973 2970 2968 2965 2963 2961 2959 2957 2956 2954 2952 2951 2950 2949 2947 2946 2945 2944 2943 2942 2941 2940 2939 2938 2937 2936 2935 2933 2932 2931 2930 2928 2927 2926 2925 2923 2922 2920 2919 2918 2916 2915 2913 2911 2910 2908 2907 2905 2903 2902 2900
3054 3053 3051 3050 3048 3045 3044 3042 3040 3037 3035 3033 3030 3028 3026 3023 3020 3017 3015 3012 3009 3006 3003 3000 2997 2995 2992 2990 2988 2985 2982 2980 2978 2975 2973 2971 2969 2966 2964 2962 2960 2958 2956 2954 2953 2951 2950 2949 2947 2946 2945 2944 2943 2942 2941 2940 2939 2938 2937 2936 2935 2933 2932 2931 2929 2928 2927 2925 2924 2923 2921 2920 2919 2917 2916 2914 2913 2911 2910 2908 2906 2905 2903 2901 2900 2898
3053 3051 3050 3048 3046 3044 3041 3039 3037 3036 3033 3031 3028 3026 3024 3021 3018 3015 3012 3010 3007 3005 3002 2999 2996 2993 2990 2988 2986 2984 2981 2978 2976 2974 2972 2970 2967 2965 2963 2960 2959 2956 2955 2953 2951 2950 2949 2947 2946 2945 2944 2943 2942 2941 2940 2939 2938 2937 2935 2934 2933 2932 2930 2929 2928 2926 2925 2924 2922 2921 2920 2918 2916 2915 2913 2912 2911 2909 2908 2906 2904 2903 2901 2899 2897 2895
3052 3050 3048 3046 3045 3043 3040 3038 3035 3033 3031 3029 3026 3024 3022 3019 3016 3013 3010 3008 3005 3002 3000 2998 2995 2992 2989 2986 2984 2982 2980 2977 2974 2972 2970 2968 2966 2964 2961 2959 2957 2955 2953 2952 2950 2949 2948 2946 2945 2944 2943 2942 2941 2940 2939 2938 2936 2935 2934 2933 2931 2930 2929 2927 2926 2925 2923 2922 2920 2919 2918 2916 2914 2913 2911 2910 2908 2907 2905 2904 2902 2900 2899 2897 2895 2893
3050 3049 3047 3045 3043 3041 3039 3036 3034 3032 3030 3027 3024 3021 3019 3017 3015 3012 3009 3006 3003 3000 2997 2995 2993 2991 2989 2986 2982 2980 2978 2976 2973 2970 2968 2966 2965 2962 2960 2958 2956 2955 2952 2950 2949 2948 2946 2945 2944 2943 2942 2941 2940 2939 2937 2936 2935 2934 2932 2931 2930 2929 2927 2926 2925 2923 2922 2920 2919 2917 2915 2914 2912 2910 2909 2907 2905 2904 2903 2901 2900 2898 2896 2894 2893 2891
3049 3047 3045 3043 3041 3039 3037 3035 3032 3030 3028 3025 3022 3020 3017 3015 3012 3010 3007 3005 3002 2999 2996 2993 2990 2988 2987 2985 2982 2979 2976 2974 2972 2970 2968 2965 2963 2961 2959 2957 2955 2953 2951 2950 2948 2947 2946 2944 2943 2942 2941 2940 2939 2937 2936 2935 2934 2932 2931 2930 2928 2927 2925 2924 2923 2921 2920 2918 2917 2915 2914 2912 2910 2908 2906 2905 2903 2902 2900 2899 2897 2895 2894 2892 2890 2888
3048 3045 3044 3042 3040 3037 3035 3033 3030 3028 3025 3023 3021 3018 3015 3012 3010 3007 3005 3002 3000 2997 2995 2992 2988 2985 2984 2982 2980 2978 2975 2973 2971 2969 2966 2964 2963 2960 2958 2956 2954 2952 2951 2949 2947 2946 2945 2943 2942 2941 2940 2939 2937 2936 2935 2934 2932 2931 2930 2928 2927 2925 2924 2922 2921 2919 2918 2916 2915 2913 2911 2910 2908 2906 2904 2903 2901 2899 2898 2896 2894 2893 2891 2889 2887 2885
3046 3044 3042 3040 3038 3036 3033 3031 3029 3026 3024 3021 3019 3016 3013 3011 3008 3005 3003 3000 2997 2995 2993 2990 2987 2985 2982 2980 2978 2975 2973 2971 2969 2967 2965 2962 2961 2960 2958 2955 2953 2952 2950 2948 2946 2945 2944 2942 2941 2940 2939 2937 2936 2935 2933 2932 2931 2929 2928 2926 2925 2923 2922 2920 2919 2917 2916 2914 2912 2911 2909 2907 2905 2904 2902 2900 2899 2897 2895 2894 2892 2890 2888 2886 2885 2883
3045 3042 3040 3038 3036 3034 3032 3029 3027 3024 3021 3019 3016 3014 3011 3009 3006 3004 3001 2998 2996 2993 2991 2989 2986 2983 2980 2979 2977 2975 2972 2969 2967 2966 2964 2961 2959 2958 2956 2954 2952 2950 2949 2947 2946 2944 2943 2941 2940 2939 2937 2936 2935 2933 2932 2930 2929 2928 2926 2925 2923 2921 2920 2918 2917 2915 2914 2912 2910 2909 2907 2905 2903 2902 2900 2898 2896 2895 2893 2891 2889 2887 2885 2884 2882 2880
3043 3041 3038 3036 3034 3032 3030 3027 3025 3022 3020 3017 3015 3012 3009 3006 3004 3001 2999 2996 2994 2991 2989 2988 2985 2982 2979 2976 2975 2974 2971 2969 2966 2965 2963 2960 2958 2956 2955 2953 2951 2949 2948 2946 2945 2943 2942 2940 2939 2938 2936 2935 2933 2932 2930 2929 2927 2926 2924 2923 2921 2920 2918 2916 2915 2913 2911 2910 2908 2906 2905 2903 2901 2899 2897 2896 2894 2892 2890 2888 2886 2884 2883 2881 2879 2877
3041 3039 3037 3035 3032 3030 3028 3025 3023 3020 3018 3015 3013 3010 3007 3005 3002 2999 2996 2994 2991 2989 2986 2985 2983 2981 2979 2975 2972 2971 2970 2967 2965 2963 2961 2959 2957 2955 2954 2952 2950 2949 2947 2945 2943 2941 2940 2939 2937 2936 2935 2933 2932 2930 2929 2927 2926 2924 2923 2921 2920 2918 2916 2915 2913 2911 2910 2908 2906 2904 2902 2900 2899 2897 2895 2893 2891 2889 2887 2885 2883 2881 2880 2878 2876 2875
3040 3038 3035 3033 3030 3028 3026 3024 3021 3019 3016 3014 3011 3008 3005 3002 3000 2997 2995 2992 2990 2987 2984 2982 2980 2978 2976 2974 2971 2969 2968 2966 2964 2961 2960 2957 2955 2953 2952 2950 2949 2947 2946 2944 2942 2940 2939 2937 2935 2934 2933 2931 2930 2929 2927 2925 2924 2922 2921 2919 2918 2916 2914 2913 2911 2909 2907 2905 2904 2902 2900 2898 2896 2894 2892 2890 2888 2886 2884 2882 2880 2878 2876 2875 2873 2871
3038 3036 3034 3031 3029 3026 3024 3022 3020 3017 3014 3012 3009 3006 3003 3000 2998 2995 2992 2990 2987 2985 2983 2980 2977 2975 2973 2971 2970 2967 2966 2964 2962 2960 2959 2956 2954 2952 2950 2949 2947 2946 2945 2943 2941 2939 2937 2935 2934 2932 2931 2929 2928 2926 2925 2923 2922 2920 2919 2917 2915 2914 2912 2910 2908 2907 2905 2903 2901 2899 2897 2895 2893 2891 2889 2887 2885 2883 2880 2879 2876 2875 2873 2871 2870 2868
3036 3034 3032 3030 3027 3025 3022 3020 3018 3015 3013 3010 3007 3005 3002 2999 2996 2994 2991 2989 2986 2983 2981 2979 2976 2974 2971 2969 2967 2965 2964 2962 2960 2958 2956 2955 2953 2950 2949 2948 2946 2945 2943 2942 2940 2938 2936 2934 2932 2930 2929 2927 2926 2924 2923 2921 2920 2918 2916 2915 2913 2911 2910 2908 2906 2904 2902 2900 2898 2896 2894 2892 2890 2888 2886 2884 2882 2880 2877 2875 2873 2871 2870 2868 2867 2865
3034 3032 3030 3028 3026 3023 3020 3018 3016 3014 3011 3008 3005 3002 3000 2997 2995 2992 2990 2988 2985 2982 2980 2977 2975 2972 2970 2967 2965 2963 2961 2960 2958 2956 2954 2952 2951 2949 2947 2946 2945 2944 2942 2940 2939 2937 2935 2933 2931 2929 2927 2926 2924 2922 2921 2919 2918 2916 2915 2913 2911 2909 2907 2905 2904 2902 2900 2898 2896 2894 2892 2890 2888 2885 2883 2881 2879 2877 2875 2872 2870 2868 2866 2865 2864 2862
3033 3030 3029 3026 3024 3021 3019 3016 3014 3011 3009 3006 3003 3000 2998 2995 2993 2990 2988 2986 2983 2981 2978 2976 2973 2971 2968 2965 2963 2961 2959 2958 2956 2954 2952 2950 2949 2947 2945 2944 2943 2942 2941 2940 2938 2936 2934 2932 2930 2928 2926 2924 2923 2921 2919 2918 2916 2915 2913 2911 2910 2908 2905 2904 2902 2900 2898 2896 2894 2892 2890 2887 2885 2883 2881 2878 2876 2874 2871 2869 2867 2865 2863 2862 2861 2860
3031 3029 3027 3025 3023 3020 3017 3015 3012 3009 3007 3004 3002 2999 2996 2994 2991 2989 2986 2984 2981 2979 2976 2974 2971 2969 2966 2964 2961 2959 2957 2956 2954 2952 2950 2949 2947 2946 2944 2942 2941 2940 2940 2938 2937 2935 2933 2931 2929 2927 2925 2923 2921 2920 2918 2916 2915 2913 2911 2910 2908 2906 2904 2902 2900 2898 2896 2894 2892 2890 2887 2885 2883 2880 2878 2875 2873 2870 2868 2866 2864 2862 2860 2859 2858 2857
3030 3028 3026 3023 3021 3018 3016 3013 3010 3008 3005 3002 3000 2997 2995 2992 2990 2987 2985 2982 2980 2977 2975 2972 2970 2967 2965 2962 2960 2957 2956 2955 2953 2951 2949 2947 2946 2944 2943 2941 2940 2939 2938 2937 2935 2934 2932 2930 2928 2926 2924 2922 2920 2918 2917 2915 2913 2912 2910 2908 2906 2904 2902 2900 2898 2896 2894 2892 2890 2887 2885 2883 2880 2878 2875 2872 2870 2868 2865 2863 2861 2860 2858 2857 2855 2855
3029 3026 3024 3022 3019 3017 3014 3012 3009 3006 3004 3001 2999 2996 2993 2990 2988 2985 2983 2980 2977 2975 2973 2970 2969 2967 2965 2962 2960 2957 2955 2953 2952 2950 2948 2946 2945 2943 2941 2940 2938 2937 2936 2935 2934 2932 2930 2929 2927 2925 2923 2921 2919 2917 2915 2914 2912 2910 2908 2906 2904 2902 2900 2898 2896 2894 2892 2890 2887 2885 2882 2880 2878 2875 2872 2870 2867 2865 2863 2860 2859 2857 2856 2855 2853 2852
3027 3025 3022 3020 3018 3015 3013 3010 3008 3005 3002 3000 2997 2995 2992 2989 2986 2983 2981 2978 2976 2974 2971 2970 2968 2966 2964 2962 2959 2956 2954 2952 2951 2950 2948 2945 2944 2941 2940 2938 2936 2935 2934 2934 2933 2931 2929 2928 2926 2924 2923 2920 2918 2916 2914 2912 2910 2909 2906 2905 2902 2900 2898 2896 2894 2892 2890 2887 2885 2882 2880 2877 2875 2872 2870 2867 2865 2863 2860 2858 2856 2855 2854 2852 2851 2850
3025 3023 3021 3018 3016 3014 3011 3009 3006 3004 3001 2998 2996 2993 2990 2988 2985 2982 2979 2977 2975 2973 2970 2969 2966 2964 2962 2960 2958 2955 2953 2951 2949 2948 2946 2945 2943 2940 2938 2936 2934 2933 2932 2931 2931 2930 2928 2926 2924 2923 2921 2919 2917 2915 2913 2911 2909 2907 2905 2903 2900 2898 2896 2894 2892 2890 2887 2885 2882 2880 2878 2875 2873 2870 2868 2865 2863 2860 2858 2856 2855 2853 2851 2850 2849 2848
3024 3021 3019 3017 3014 3012 3010 3007 3005 3002 2999 2997 2994 2991 2989 2986 2983 2980 2978 2975 2973 2971 2969 2967 2965 2963 2961 2959 2957 2955 2952 2950 2948 2946 2945 2943 2941 2939 2937 2935 2933 2931 2930 2929 2929 2929 2927 2925 2923 2921 2920 2918 2915 2913 2911 2909 2907 2905 2903 2901 2899 2896 2894 2892 2890 2887 2885 2883 2880 2878 2875 2873 2870 2868 2865 2863 2861 2859 2856 2854 2853 2851 2850 2848 2847 2846
3022 3020 3018 3015 3013 3010 3008 3005 3003 3000 2998 2995 2992 2989 2986 2984 2981 2979 2976 2974 2971 2969 2967 2965 2963 2961 2959 2957 2955 2953 2951 2950 2948 2946 2944 2941 2940 2938 2936 2934 2932 2930 2928 2926 2926 2927 2926 2925 2922 2920 2917 2916 2914 2911 2909 2907 2905 2903 2901 2899 2897 2895 2892 2890 2887 2885 2883 2880 2878 2875 2873 2870 2868 2866 2863 2861 2859 2856 2854 2852 2850 2849 2847 2846 2845 2844
3021 3019 3016 3014 3011 3009 3007 3004 3001 2999 2996 2993 2990 2987 2985 2982 2979 2977 2974 2972 2970 2967 2965 2963 2961 2959 2957 2955 2953 2951 2950 2948 2946 2945 2943 2940 2938 2936 2934 2932 2930 2928 2926 2923 2922 2922 2923 2923 2921 2919 2916 2914 2912 2910 2907 2905 2902 2900 2899 2897 2895 2892 2890 2887 2885 2883 2880 2878 2875 2873 2870 2868 2866 2864 2861 2859 2857 2855 2853 2850 2849 2847 2845 2844 2843 2842
3020 3017 3015 3012 3010 3008 3005 3003 3000 2997 2995 2992 2989 2986 2983 2980 2977 2975 2972 2970 2968 2966 2964 2962 2960 2958 2956 2954 2952 2950 2947 2945 2944 2943 2941 2939 2937 2935 2933 2930 2928 2926 2924 2921 2919 2917 2916 2918 2918 2917 2915 2913 2910 2908 2905 2902 2900 2898 2896 2894 2892 2890 2887 2885 2882 2880 2878 2875 2873 2870 2868 2866 2864 2861 2859 2857 2855 2853 2851 2849 2847 2845 2844 2842 2841 2840
3019 3016 3014 3011 3009 3007 3004 3001 2999 2996 2993 2990 2987 2984 2981 2978 2976 2973 2971 2969 2966 2964 2962 2960 2958 2956 2954 2953 2951 2949 2946 2944 2942 2940 2939 2937 2935 2933 2931 2929 2927 2925 2923 2921 2918 2915 2913 2912 2912 2913 2912 2910 2908 2905 2903 2900 2898 2895 2893 2891 2889 2887 2885 2882 2880 2877 2875 2873 2871 2868 2866 2864 2861 2860 2857 2855 2853 2851 2849 2847 2845 2844 2842 2840 2839 2838
3017 3015 3013 3010 3008 3005 3003 3000 2997 2994 2991 2988 2985 2982 2980 2977 2974 2971 2969 2967 2965 2963 2960 2958 2956 2954 2952 2951 2949 2947 2945 2944 2941 2940 2937 2935 2933 2931 2930 2927 2925 2923 2921 2920 2918 2915 2913 2910 2909 2908 2908 2907 2905 2903 2900 2898 2895 2893 2891 2889 2886 2884 2882 2880 2877 2875 2873 2870 2868 2866 2864 2862 2860 2857 2855 2854 2851 2850 2848 2846 2844 2842 2840 2838 2837 2836
3016 3014 3011 3009 3007 3004 3001 2999 2996 2993 2990 2987 2984 2981 2978 2975 2972 2970 2967 2965 2963 2961 2959 2957 2955 2953 2951 2949 2947 2945 2944 2942 2940 2938 2936 2934 2932 2930 2928 2926 2924 2921 2919 2918 2916 2914 2912 2910 2908 2905 2904 2904 2903 2901 2898 2895 2893 2891 2889 2886 2884 2881 2879 2877 2875 2872 2870 2868 2866 2864 2861 2859 2857 2855 2854 2852 2850 2848 2846 2845 2843 2841 2839 2837 2835 2834
3015 3013 3010 3008 3005 3003 3000 2997 2994 2991 2988 2985 2982 2980 2977 2974 2971 2969 2966 2964 2962 2960 2957 2955 2954 2952 2950 2948 2946 2944 2942 2940 2938 2937 2935 2933 2930 2928 2926 2924 2922 2920 2917 2915 2913 2911 2909 2908 2906 2904 2901 2900 2900 2899 2896 2894 2891 2889 2886 2884 2882 2879 2877 2874 2872 2870 2868 2866 2864 2861 2859 2857 2855 2853 2852 2850 2848 2846 2845 2843 2841 2840 2838 2836 2834 2833
3014 3011 3009 3007 3004 3001 2998 2995 2993 2990 2986 2984 2981 2978 2975 2973 2970 2968 2965 2963 2961 2959 2956 2954 2952 2951 2949 2947 2945 2944 2941 2939 2937 2935 2933 2931 2929 2927 2925 2923 2920 2918 2915 2913 2911 2909 2907 2905 2903 2901 2900 2897 2896 2895 2893 2891 2889 2887 2885 2882 2880 2878 2875 2873 2870 2868 2866 2864 2862 2860 2857 2855 2853 2851 2850 2848 2846 2845 2843 2842 2840 2839 2837 2835 2833 2832
3012 3010 3008 3005 3003 3000 2997 2994 2991 2988 2985 2982 2979 2977 2974 2972 2969 2967 2965 2962 2960 2958 2956 2954 2951 2949 2948 2946 2944 2943 2940 2939 2936 2934 2932 2930 2928 2926 2924 2922 2920 2917 2914 2911 2909 2906 2904 2902 2900 2898 2897 2895 2893 2891 2889 2887 2886 2884 2882 2880 2878 2875 2873 2871 2868 2866 2864 2862 2860 2857 2855 2853 2851 2850 2848 2846 2845 2843 2842 2840 2839 2838 2836 2835 2833 2831
3011 3009 3007 3004 3001 2999 2995 2993 2990 2987 2984 2981 2979 2976 2973 2971 2968 2966 2964 2961 2959 2957 2955 2953 2950 2948 2946 2944 2942 2941 2939 2937 2935 2933 2931 2929 2927 2925 2923 2920 2918 2916 2913 2910 2907 2905 2902 2899 2897 2895 2893 2892 2891 2889 2886 2884 2882 2880 2879 2877 2875 2873 2871 2869 2866 2864 2862 2860 2858 2855 2853 2851 2850 2848 2846 2844 2842 2841 2840 2839 2838 2837 2835 2834 2832 2830
3010 3008 3005 3003 3000 2997 2994 2991 2988 2985 2983 2980 2977 2975 2972 2970 2967 2965 2963 2961 2959 2956 2954 2952 2950 2948 2946 2944 2941 2940 2938 2936 2934 2932 2930 2928 2926 2924 2922 2920 2917 2915 2912 2910 2907 2904 2901 2898 2895 2892 2890 2889 2887 2886 2885 2882 2880 2877 2875 2874 2873 2871 2869 2867 2864 2862 2860 2857 2855 2854 2852 2850 2848 2846 2844 2842 2840 2839 2838 2837 2836 2835 2834 2833 2832 2830
3009 3007 3004 3001 2999 2996 2993 2990 2987 2984 2981 2979 2976 2974 2971 2969 2966 2964 2962 2960 2958 2956 2954 2951 2949 2947 2945 2944 2941 2939 2937 2935 2933 2931 2930 2928 2925 2923 2921 2919 2916 2914 2911 2909 2906 2903 2900 2897 2895 2892 2890 2887 2885 2883 2882 2880 2878 2875 2873 2871 2869 2868 2867 2865 2862 2860 2857 2855 2853 2851 2850 2848 2846 2844 2842 2840 2839 2837 2836 2835 2835 2834 2833 2832 2831 2830
3008 3005 3003 3000 2997 2994 2991 2988 2985 2982 2980 2977 2975 2972 2970 2968 2966 2964 2961 2959 2957 2955 2953 2951 2949 2946 2944 2942 2940 2939 2937 2935 2933 2930 2929 2927 2925 2922 2920 2917 2915 2913 2911 2908 2906 2903 2900 2897 2894 2892 2889 2886 2884 2882 2880 2879 2876 2874 2871 2869 2867 2866 2864 2862 2860 2858 2855 2854 2852 2850 2848 2846 2845 2843 2841 2839 2838 2836 2835 2834 2833 2832 2832 2831 2830 2829
3007 3004 3001 2998 2995 2992 2989 2986 2984 2981 2978 2976 2974 2971 2969 2967 2965 2963 2961 2959 2957 2955 2953 2950 2949 2946 2944 2941 2939 2938 2936 2934 2932 2930 2928 2925 2924 2921 2919 2917 2915 2912 2910 2907 2905 2903 2900 2897 2894 2891 2888 2885 2883 2881 2879 2877 2875 2873 2870 2868 2865 2864 2862 2861 2859 2856 2854 2852 2850 2848 2847 2845 2843 2842 2840 2838 2836 2835 2834 2833 2832 2831 2830 2830 2829 2827
3005 3002 3000 2997 2994 2991 2988 2985 2982 2980 2977 2975 2972 2970 2968 2966 2964 2962 2960 2958 2956 2954 2952 2950 2948 2946 2944 2942 2940 2937 2935 2933 2931 2929 2927 2925 2923 2920 2918 2916 2914 2911 2909 2906 2904 2902 2900 2897 2894 2891 2888 2885 2882 2880 2877 2875 2874 2872 2870 2867 2864 2862 2860 2858 2856 2855 2853 2851 2849 2847 2845 2844 2842 2840 2839 2837 2835 2834 2833 2832 2831 2830 2830 2829 2827 2826
3004 3001 2998 2995 2992 2989 2986 2984 2981 2979 2976 2974 2971 2969 2967 2965 2963 2961 2959 2956 2955 2953 2951 2949 2946 2945 2943 2941 2939 2937 2935 2933 2931 2928 2926 2924 2922 2920 2917 2915 2913 2911 2908 2906 2903 2901 2899 2896 2894 2890 2887 2884 2881 2879 2876 2874 2872 2870 2868 2866 2863 2860 2858 2856 2854 2853 2851 2850 2848 2846 2844 2843 2841 2840 2838 2836 2835 2834 2833 2832 2831 2830 2829 2828 2827 2826
3002 2999 2996 2993 2990 2988 2985 2982 2980 2978 2975 2973 2970 2968 2966 2964 2962 2960 2958 2955 2953 2951 2949 2947 2945 2943 2941 2940 2938 2936 2935 2933 2930 2928 2926 2924 2921 2919 2917 2915 2912 2910 2908 2905 2903 2900 2897 2894 2891 2889 2886 2884 2881 2878 2875 2873 2871 2869 2867 2865 2862 2860 2857 2855 2853 2851 2850 2848 2847 2845 2843 2841 2840 2839 2837 2836 2834 2833 2832 2831 2830 2830 2828 2827 2826 2825
3000 2998 2995 2992 2990 2987 2984 2982 2979 2976 2974 2972 2970 2967 2965 2963 2961 2959 2957 2955 2953 2950 2948 2946 2944 2942 2940 2938 2936 2935 2933 2931 2930 2928 2925 2923 2921 2919 2916 2914 2912 2910 2907 2905 2903 2900 2897 2894 2890 2887 2884 2882 2880 2878 2875 2872 2870 2867 2865 2863 2860 2858 2856 2855 2853 2851 2849 2847 2845 2844 2842 2841 2839 2838 2836 2835 2834 2832 2831 2831 2830 2829 2828 2827 2826 2825
2999 2996 2994 2991 2988 2986 2983 2981 2978 2976 2973 2971 2969 2966 2965 2962 2960 2958 2956 2954 2952 2950 2947 2945 2943 2941 2939 2937 2935 2933 2931 2930 2928 2926 2924 2922 2920 2918 2916 2914 2911 2909 2907 2905 2902 2900 2897 2894 2890 2886 2883 2880 2878 2876 2874 2872 2869 2866 2864 2861 2859 2857 2856 2854 2852 2850 2848 2846 2845 2843 2841 2840 2839 2837 2836 2835 2833 2832 2831 2830 2830 2829 2827 2826 2825 2825
2998 2995 2993 2990 2987 2985 2982 2980 2977 2975 2973 2970 2968 2966 2964 2962 2960 2957 2955 2953 2950 2949 2946 2944 2942 2940 2938 2936 2934 2932 2930 2928 2926 2924 2922 2921 2919 2917 2915 2913 2911 2909 2906 2904 2902 2900 2897 2894 2890 2887 2883 2880 2877 2875 2873 2871 2868 2866 2863 2861 2859 2857 2855 2854 2852 2850 2848 2846 2844 2842 2840 2839 2837 2836 2835 2834 2833 2832 2831 2830 2829 2828 2827 2826 2825 2825
2997 2994 2992 2989 2986 2984 2981 2979 2977 2975 2972 2970 2968 2965 2963 2961 2959 2957 2954 2952 2950 2947 2945 2943 2941 2939 2937 2935 2933 2931 2929 2927 2925 2923 2921 2919 2917 2915 2913 2911 2910 2908 2906 2904 2902 2899 2897 2895 2891 2887 2883 2880 2876 2874 2872 2870 2868 2865 2863 2861 2859 2857 2855 2853 2851 2850 2847 2845 2844 2842 2840 2839 2837 2836 2835 2834 2833 2832 2830 2830 2829 2828 2827 2826 2825 2824
2996 2993 2991 2988 2985 2983 2980 2978 2976 2974 2971 2969 2967 2965 2962 2960 2958 2956 2954 2951 2949 2947 2945 2943 2940 2938 2936 2934 2932 2930 2928 2926 2924 2922 2920 2918 2915 2913 2911 2909 2907 2905 2904 2902 2900 2898 2896 2895 2892 2888 2884 2880 2876 2873 2871 2869 2867 2865 2863 2861 2859 2856 2855 2853 2851 2849 2847 2845 2843 2842 2840 2838 2837 2836 2835 2834 2833 2832 2830 2830 2829 2828 2827 2826 2825 2824
2995 2992 2990 2987 2985 2982 2980 2977 2975 2973 2970 2968 2966 2964 2962 2960 2957 2955 2953 2951 2948 2946 2944 2942 2940 2938 2935 2933 2931 2929 2927 2925 2923 2921 2919 2916 2914 2912 2909 2907 2905 2902 2900 2899 2897 2895 2894 2892 2891 2889 2885 2880 2876 2873 2870 2868 2866 2865 2863 2861 2859 2856 2854 2852 2850 2849 2847 2845 2843 2841 2840 2838 2837 2836 2835 2834 2833 2832 2830 2830 2829 2828 2827 2826 2825 2824